Details From LPPT - Lisboa
To LPFR - Faro
Flight Number -
Tags decoded
Created
Modified
Stats Distance 124 nm / 230 km
Max Altitude 0 ft / 0 m
Waypoints 6
Social Downloads 1
Likes 0
Share VATSIM

Download

Looking for another format? Having issues loading an existing format? Contact us
Advertisement - Login to hide

Notes

Requested: LPPT ESP TROIA ODEMI VFA LPFR

Route

LPPT ESP TROIA ODEMI VFA LPFR

ID Type Via Altitude Latitude Longitude Leg Dist Tot Dist Heading (true) Name
O LPPT APT - 0 ft / 0 m 38.77856˚ -9.13515˚ - 0 nm - Lisboa
ESP VOR - 0 ft / 0 m 38.42427˚ -9.18578˚ 21 nm 21 nm 186° / 186° ESPICHEL VORTAC
TROIA FIX - 0 ft / 0 m 38.07333˚ -8.87917˚ 25 nm 46 nm 145° / 146° -
ODEMI FIX - 0 ft / 0 m 37.49750˚ -8.38389˚ 41 nm 88 nm 146° / 146° -
VFA VOR - 0 ft / 0 m 37.01352˚ -7.97501˚ 35 nm 123 nm 146° / 146° FARO VOR-DME
O LPFR APT - 0 ft / 0 m 37.01534˚ -7.97233˚ 0 nm 123 nm 50° / 50° Faro

Altitude Profile

Advertisement - Login to hide

LPPT

Details ICAO LPPT (LIS)
Name Lisboa
Region Portugal
Timezone Europe/Lisbon (UTC+0.0)
Stats Elevation 374 ft / 114 m (AMSL)
Location 38.778559° -9.135146°
Runways 2
Magnetic Variation 2.363° W

METAR

LPPT 170400Z 03009KT CAVOK 08/01 Q1029

Decode

TAF

TAF LPPT 162300Z 1700/1806 35008KT CAVOK BECMG 1701/1704 03008KT PROB30 1718/1801 35008KT

Decode

Departure Runways

ID Width Length Bearing (true) Bearing (mag) Surface Threshold Offset Overrun Length
03 148 ft / 45 m 12,518 ft / 3,815 m 22.70° 25.06° Asphalt 296 ft / 90 m 0 ft / 0 m
17 148 ft / 45 m 7,922 ft / 2,415 m 168.38° 170.74° Asphalt 0 ft / 0 m 0 ft / 0 m
21 148 ft / 45 m 12,518 ft / 3,815 m 202.72° 205.08° Asphalt 1,969 ft / 600 m 0 ft / 0 m
35 148 ft / 45 m 7,922 ft / 2,415 m 348.38° 350.74° Asphalt 492 ft / 150 m 0 ft / 0 m

LPFR

Details ICAO LPFR (FAO)
Name Faro
Region Portugal
Timezone Europe/Lisbon (UTC+0.0)
Stats Elevation 24 ft / 7 m (AMSL)
Location 37.015336° -7.972327°
Runways 1
Magnetic Variation 1.935° W

METAR

LPFR 170400Z 36006KT CAVOK 10/01 Q1026

Decode

TAF

TAF LPFR 162300Z 1700/1724 03010KT CAVOK BECMG 1709/1711 06012KT BECMG 1716/1718 01008KT BECMG 1722/1724 06012KT

Decode

Destination Runways

ID Width Length Bearing (true) Bearing (mag) Surface Threshold Offset Overrun Length
10 148 ft / 45 m 8,148 ft / 2,484 m 100.08° 102.01° Asphalt 148 ft / 45 m 0 ft / 0 m
28 148 ft / 45 m 8,148 ft / 2,484 m 280.10° 282.03° Asphalt 148 ft / 45 m 0 ft / 0 m

Approach Navaids

Runway Type Ident Frequency Range Bearing (true) Bearing (mag) Slope Elevation
28 Localiser IIF 109.50 MHz 18 nm / 33 km 280.16° 282.10° - 24 ft / 7 m (AMSL)
28 Glidescope IIF 109.50 MHz 10 nm / 19 km 280.09° 282.02° 3.00° 24 ft / 7 m (AMSL)
28 DME IIF 109.50 MHz 18 nm / 33 km - - - 24 ft / 7 m (AMSL)

Popular Alternatives